Puyallup, WA
on Monday, February 11, 2013

Monday
Previous Day Next Day
Daily Summary
 ActualAverage (KSEA)Record (KSEA)
Temperature
Mean Temperature °F 43°F  
Max Temperature 46°F 50°F 62°F (1963)
Min Temperature 32°F 37°F 23°F (1948)
Degree Days
Heating Degree Days 26 22  
Month to date heating degree days 242  
Since 1 July heating degree days 2891  
Cooling Degree Days 0 0  
Month to date cooling degree days 0  
Year to date cooling degree days 0  
Moisture
Dew Point 39°F   
Average Humidity 92    
Maximum Humidity 100    
Minimum Humidity 66    
Precipitation
Precipitation 0.00 in 0.13 in 0.81 in (1975)
Month to date precipitation 1.46  
Year to date precipitation 7.03  
Snow
Snow 0.00 in in 1.10 in (1981)
Month to date snowfall  
Since 1 July snowfall  
Snow Depth in   
Wind
Wind Speed 0 mph   
Max Wind Speed 0 mph   
Max Gust Speed mph   
Visibility 8 miles   
Events Fog , Rain   

Key: T is trace of precipitation, MM is missing value
Source: NWS Daily Summary
Time(PST)TemperatureDew PointHumidity Pressure Visibility Wind DirectionWind SpeedGust SpeedPrecipitationEvents Conditions
12:15 AM 39.2°F 37.4°F 93% 30.33 in 10.0 miles Calm Calm - N/A   Overcast
12:35 AM 39.2°F 37.4°F 93% 30.34 in 10.0 miles Calm Calm - N/A   Overcast
12:55 AM 39.2°F 37.4°F 93% 30.35 in 10.0 miles Calm Calm - N/A   Overcast
1:15 AM 39.2°F 37.4°F 93% 30.35 in 10.0 miles Calm Calm - N/A   Overcast
1:35 AM 39.2°F 37.4°F 93% 30.35 in 10.0 miles Calm Calm - N/A Rain Light Rain
1:55 AM 39.2°F 37.4°F 93% 30.35 in 10.0 miles Calm Calm - N/A Rain Light Rain
2:15 AM 39.2°F 39.2°F 100% 30.35 in 9.0 miles Calm Calm - N/A   Mostly Cloudy
2:35 AM 39.2°F 39.2°F 100% 30.34 in 10.0 miles Calm Calm - N/A   Overcast
2:55 AM 37.4°F 37.4°F 100% 30.34 in 10.0 miles Calm Calm - N/A   Overcast
3:15 AM 37.4°F 37.4°F 100% 30.33 in 10.0 miles Calm Calm - N/A   Overcast
3:35 AM 37.4°F 37.4°F 100% 30.33 in 7.0 miles Calm Calm - N/A   Overcast
3:55 AM 37.4°F 37.4°F 100% 30.33 in 7.0 miles Calm Calm - N/A   Overcast
4:15 AM 37.4°F 37.4°F 100% 30.33 in 7.0 miles Calm Calm - N/A   Overcast
4:35 AM 37.4°F 37.4°F 100% 30.33 in 9.0 miles Calm Calm - N/A   Overcast
4:55 AM 37.4°F 37.4°F 100% 30.34 in 6.0 miles Calm Calm - N/A   Overcast
5:15 AM 37.4°F 37.4°F 100% 30.34 in 6.0 miles Calm Calm - N/A   Overcast
5:35 AM 37.4°F 37.4°F 100% 30.34 in 6.0 miles Calm Calm - N/A   Overcast
5:55 AM 37.4°F 37.4°F 100% 30.34 in 5.0 miles Calm Calm - N/A   Overcast
6:15 AM 37.4°F 37.4°F 100% 30.34 in 5.0 miles Calm Calm - N/A   Overcast
6:35 AM 35.6°F 35.6°F 100% 30.34 in 4.0 miles Calm Calm - N/A   Mostly Cloudy
6:55 AM 35.6°F 35.6°F 100% 30.34 in 4.0 miles Calm Calm - N/A   Mostly Cloudy
7:15 AM 33.8°F 33.8°F 100% 30.34 in 1.2 miles Calm Calm - N/A   Mostly Cloudy
7:35 AM 33.8°F 33.8°F 100% 30.34 in 0.8 miles Calm Calm - N/A   Mostly Cloudy
7:55 AM 32.0°F 32.0°F 100% 30.34 in 0.5 miles Calm Calm - N/A Fog Fog
8:15 AM 35.6°F 35.6°F 100% 30.34 in 1.2 miles Calm Calm - N/A   Overcast
8:35 AM 37.4°F 37.4°F 100% 30.34 in 5.0 miles Calm Calm - N/A   Overcast
8:55 AM 37.4°F 37.4°F 100% 30.35 in 6.0 miles Calm Calm - N/A   Overcast
9:15 AM 39.2°F 39.2°F 100% 30.35 in 9.0 miles Calm Calm - N/A   Overcast
9:35 AM 39.2°F 37.4°F 93% 30.35 in 10.0 miles Calm Calm - N/A   Overcast
9:55 AM 41.0°F 37.4°F 87% 30.36 in 10.0 miles Calm Calm - N/A   Overcast
10:15 AM 41.0°F 37.4°F 87% 30.36 in 10.0 miles Calm Calm - N/A   Overcast
10:35 AM 41.0°F 37.4°F 87% 30.36 in 10.0 miles Calm Calm - N/A   Mostly Cloudy
10:55 AM 42.8°F 37.4°F 81% 30.35 in 10.0 miles Calm Calm - N/A   Overcast
11:15 AM 44.6°F 37.4°F 76% 30.36 in 10.0 miles Calm Calm - N/A   Overcast
11:35 AM 44.6°F 37.4°F 76% 30.36 in 10.0 miles Calm Calm - N/A   Overcast
11:55 AM 44.6°F 35.6°F 71% 30.35 in 10.0 miles Calm Calm - N/A   Overcast
12:15 PM 46.4°F 35.6°F 66% 30.34 in 10.0 miles Calm Calm - N/A   Mostly Cloudy
12:35 PM 44.6°F 35.6°F 71% 30.34 in 10.0 miles Calm Calm - N/A   Mostly Cloudy
12:55 PM 46.4°F 37.4°F 71% 30.34 in 10.0 miles Calm Calm - N/A   Overcast
1:15 PM 46.4°F 37.4°F 71% 30.33 in 10.0 miles Calm Calm - N/A   Mostly Cloudy
1:35 PM 46.4°F 37.4°F 71% 30.34 in 10.0 miles Calm Calm - N/A   Mostly Cloudy
1:55 PM 46.4°F 37.4°F 71% 30.33 in 10.0 miles Calm Calm - N/A   Scattered Clouds
2:55 PM 46.4°F 39.2°F 76% 30.33 in 10.0 miles Calm Calm - N/A   Mostly Cloudy
3:15 PM 46.4°F 39.2°F 76% 30.33 in 10.0 miles Calm Calm - N/A   Mostly Cloudy
3:35 PM 46.4°F 39.2°F 76% 30.33 in 10.0 miles Calm Calm - N/A   Mostly Cloudy
3:55 PM 46.4°F 39.2°F 76% 30.33 in 10.0 miles Calm Calm - N/A   Overcast
4:15 PM 46.4°F 41.0°F 81% 30.33 in 10.0 miles Calm Calm - N/A   Mostly Cloudy
4:35 PM 46.4°F 41.0°F 81% 30.33 in 10.0 miles Calm Calm - N/A   Mostly Cloudy
4:55 PM 44.6°F 41.0°F 87% 30.33 in 9.0 miles Calm Calm - N/A   Overcast
5:15 PM 44.6°F 41.0°F 87% 30.33 in 10.0 miles Calm Calm - N/A   Overcast
5:35 PM 44.6°F 41.0°F 87% 30.33 in 10.0 miles Calm Calm - N/A   Mostly Cloudy
5:55 PM 44.6°F 42.8°F 93% 30.33 in 10.0 miles Calm Calm - N/A   Overcast
6:15 PM 44.6°F 42.8°F 93% 30.34 in 10.0 miles Calm Calm - N/A   Overcast
6:35 PM 44.6°F 44.6°F 100% 30.34 in 2.5 miles Calm Calm - N/A   Overcast
6:55 PM 44.6°F 44.6°F 100% 30.34 in 1.8 miles Calm Calm - N/A   Overcast
7:15 PM 42.8°F 42.8°F 100% 30.34 in 2.5 miles Calm Calm - N/A Rain Light Rain
7:35 PM 44.6°F 44.6°F 100% 30.34 in 3.0 miles Calm Calm - N/A   Overcast
7:55 PM 44.6°F 44.6°F 100% 30.34 in 4.0 miles Calm Calm - N/A   Overcast
8:15 PM 44.6°F 44.6°F 100% 30.34 in 2.5 miles Calm Calm - N/A Rain Light Rain
8:35 PM 44.6°F 44.6°F 100% 30.34 in 2.5 miles Calm Calm - N/A Rain Light Rain
8:55 PM 44.6°F 44.6°F 100% 30.34 in 3.0 miles Calm Calm - N/A   Overcast
9:15 PM 44.6°F 44.6°F 100% 30.33 in 2.5 miles Calm Calm - N/A   Overcast
9:35 PM 44.6°F 44.6°F 100% 30.33 in 4.0 miles Calm Calm - N/A   Overcast
9:55 PM 44.6°F 44.6°F 100% 30.33 in 9.0 miles Calm Calm - N/A   Overcast
10:15 PM 44.6°F 44.6°F 100% 30.34 in 10.0 miles Calm Calm - N/A   Overcast
10:35 PM 44.6°F 44.6°F 100% 30.34 in 10.0 miles Calm Calm - N/A   Overcast
10:55 PM 44.6°F 44.6°F 100% 30.35 in 10.0 miles Calm Calm - N/A   Overcast
11:15 PM 44.6°F 44.6°F 100% 30.35 in 6.0 miles Calm Calm - N/A   Overcast
11:35 PM 42.8°F 42.8°F 100% 30.35 in 10.0 miles Calm Calm - N/A   Mostly Cloudy
11:55 PM 42.8°F 42.8°F 100% 30.36 in 10.0 miles Calm Calm - N/A   Overcast
Moon Phase
Feb. 11 Feb. 17 Feb. 25 Mar. 04 Mar. 11
Sunrise:07:19 AM (PST) Moon Rise:07:37 AM (PST)2/11
Sunset:05:27 PM (PST) Moon Set:07:42 PM (PST)2/11

Copyright © 2014 The Weather Underground, Inc.